Time,TemperatureF,DewpointF,PressureIn,WindDirection,WindDirectionDegrees,WindSpeedMPH,WindSpeedGustMPH,Humidity,HourlyPrecipIn,Conditions,Clouds,dailyrainin,SolarRadiationWatts/m^2,SoftwareType,DateUTC
2013-01-02 00:07:00,29.5,16.0,30.29,ENE,67,5.0,7.0,58,0.00,,,0.00,0,weatherlink.com 1.10,2013-01-02 07:07:00,
2013-01-02 00:22:00,29.2,16.0,30.29,ENE,67,3.0,5.0,58,0.00,,,0.00,0,weatherlink.com 1.10,2013-01-02 07:22:00,
2013-01-02 00:37:00,29.2,16.0,30.29,ENE,67,2.0,5.0,58,0.00,,,0.00,0,weatherlink.com 1.10,2013-01-02 07:37:00,
2013-01-02 00:52:00,28.8,16.0,30.30,ENE,67,2.0,5.0,58,0.00,,,0.00,0,weatherlink.com 1.10,2013-01-02 07:52:00,
2013-01-02 01:07:00,28.9,16.0,30.30,North,10,8.0,9.0,60,0.00,,,0.00,0,weatherlink.com 1.10,2013-01-02 08:07:00,
2013-01-02 01:22:00,29.4,17.0,30.29,North,10,7.0,9.0,61,0.00,,,0.00,0,weatherlink.com 1.10,2013-01-02 08:22:00,
2013-01-02 01:37:00,28.9,15.0,30.30,North,10,3.0,6.0,57,0.00,,,0.00,0,weatherlink.com 1.10,2013-01-02 08:37:00,
2013-01-02 01:53:00,27.0,15.0,30.29,North,5,8.0,9.0,62,0.00,,,0.00,0,weatherlink.com 1.10,2013-01-02 08:53:00,
2013-01-02 02:08:00,31.5,16.0,30.30,NNE,21,7.0,9.0,54,0.00,,,0.00,0,weatherlink.com 1.10,2013-01-02 09:08:00,
2013-01-02 02:23:00,28.9,15.0,30.29,NNE,24,6.0,7.0,57,0.00,,,0.00,0,weatherlink.com 1.10,2013-01-02 09:23:00,
2013-01-02 02:38:00,29.9,15.0,30.29,NNE,24,0.0,5.0,55,0.00,,,0.00,0,weatherlink.com 1.10,2013-01-02 09:38:00,
2013-01-02 02:53:00,27.6,15.0,30.29,NNE,24,0.0,0.0,59,0.00,,,0.00,0,weatherlink.com 1.10,2013-01-02 09:53:00,
2013-01-02 03:08:00,28.5,15.0,30.29,NNE,25,0.0,1.0,58,0.00,,,0.00,0,weatherlink.com 1.10,2013-01-02 10:08:00,
2013-01-02 03:23:00,26.9,15.0,30.28,NNE,25,2.0,3.0,60,0.00,,,0.00,0,weatherlink.com 1.10,2013-01-02 10:23:00,
2013-01-02 03:38:00,27.1,15.0,30.28,NNE,17,3.0,5.0,61,0.00,,,0.00,0,weatherlink.com 1.10,2013-01-02 10:38:00,
2013-01-02 03:53:00,26.5,15.0,30.27,NNE,17,0.0,0.0,63,0.00,,,0.00,0,weatherlink.com 1.10,2013-01-02 10:53:00,
2013-01-02 04:08:00,28.5,16.0,30.27,NNE,21,3.0,4.0,59,0.00,,,0.00,0,weatherlink.com 1.10,2013-01-02 11:08:00,
2013-01-02 04:23:00,27.1,15.0,30.27,NNW,343,4.0,7.0,61,0.00,,,0.00,0,weatherlink.com 1.10,2013-01-02 11:23:00,
2013-01-02 04:38:00,25.0,16.0,30.28,North,5,6.0,10.0,69,0.00,,,0.00,0,weatherlink.com 1.10,2013-01-02 11:38:00,
2013-01-02 04:53:00,25.7,16.0,30.29,North,5,6.0,10.0,67,0.00,,,0.00,0,weatherlink.com 1.10,2013-01-02 11:53:00,
2013-01-02 05:08:00,25.9,16.0,30.28,North,5,6.0,9.0,67,0.00,,,0.00,0,weatherlink.com 1.10,2013-01-02 12:08:00,
2013-01-02 05:23:00,25.3,15.0,30.28,North,5,0.0,7.0,64,0.00,,,0.00,0,weatherlink.com 1.10,2013-01-02 12:23:00,
2013-01-02 05:38:00,24.2,15.0,30.28,North,5,0.0,0.0,67,0.00,,,0.00,0,weatherlink.com 1.10,2013-01-02 12:38:00,
2013-01-02 05:53:00,25.3,17.0,30.29,North,5,7.0,11.0,70,0.00,,,0.00,0,weatherlink.com 1.10,2013-01-02 12:53:00,
2013-01-02 06:08:00,25.4,17.0,30.29,North,5,8.0,13.0,70,0.00,,,0.00,0,weatherlink.com 1.10,2013-01-02 13:08:00,
2013-01-02 06:23:00,26.2,17.0,30.29,North,11,9.0,12.0,68,0.00,,,0.00,0,weatherlink.com 1.10,2013-01-02 13:23:00,
2013-01-02 06:38:00,23.8,15.0,30.29,North,355,10.0,14.0,68,0.00,,,0.00,0,weatherlink.com 1.10,2013-01-02 13:38:00,
2013-01-02 06:53:00,23.3,15.0,30.29,North,11,7.0,11.0,70,0.00,,,0.00,0,weatherlink.com 1.10,2013-01-02 13:53:00,
2013-01-02 07:08:00,22.9,15.0,30.30,North,355,8.0,10.0,71,0.00,,,0.00,0,weatherlink.com 1.10,2013-01-02 14:08:00,
2013-01-02 07:23:00,22.2,13.0,30.30,North,360,7.0,13.0,69,0.00,,,0.00,11,weatherlink.com 1.10,2013-01-02 14:23:00,
2013-01-02 07:38:00,22.3,15.0,30.31,North,5,6.0,10.0,73,0.00,,,0.00,16,weatherlink.com 1.10,2013-01-02 14:38:00,
2013-01-02 07:53:00,23.9,15.0,30.31,North,5,7.0,11.0,68,0.00,,,0.00,74,weatherlink.com 1.10,2013-01-02 14:53:00,
2013-01-02 08:08:00,25.4,15.0,30.31,North,355,6.0,10.0,64,0.00,,,0.00,121,weatherlink.com 1.10,2013-01-02 15:08:00,
2013-01-02 08:23:00,26.3,15.0,30.31,North,9,6.0,12.0,62,0.00,,,0.00,176,weatherlink.com 1.10,2013-01-02 15:23:00,
2013-01-02 08:38:00,28.7,17.0,30.31,North,5,2.0,9.0,61,0.00,,,0.00,227,weatherlink.com 1.10,2013-01-02 15:38:00,
2013-01-02 08:53:00,32.5,18.0,30.31,North,5,3.0,3.0,56,0.00,,,0.00,267,weatherlink.com 1.10,2013-01-02 15:53:00,
2013-01-02 09:09:00,33.7,18.0,30.32,North,355,4.0,5.0,52,0.00,,,0.00,311,weatherlink.com 1.10,2013-01-02 16:09:00,
2013-01-02 09:24:00,34.6,18.0,30.32,SSE,151,7.0,7.0,51,0.00,,,0.00,350,weatherlink.com 1.10,2013-01-02 16:24:00,
2013-01-02 09:39:00,34.1,18.0,30.32,SE,136,0.0,3.0,51,0.00,,,0.00,387,weatherlink.com 1.10,2013-01-02 16:39:00,
2013-01-02 09:54:00,35.8,18.0,30.32,SE,136,0.0,1.0,49,0.00,,,0.00,422,weatherlink.com 1.10,2013-01-02 16:54:00,
2013-01-02 10:09:00,36.7,18.0,30.32,ENE,66,4.0,6.0,47,0.00,,,0.00,452,weatherlink.com 1.10,2013-01-02 17:09:00,
2013-01-02 10:24:00,36.1,18.0,30.32,NNW,333,6.0,11.0,48,0.00,,,0.00,480,weatherlink.com 1.10,2013-01-02 17:24:00,
2013-01-02 10:39:00,36.4,19.0,30.31,NNW,331,7.0,9.0,49,0.00,,,0.00,506,weatherlink.com 1.10,2013-01-02 17:39:00,
2013-01-02 10:54:00,37.3,19.0,30.30,NW,320,6.0,6.0,47,0.00,,,0.00,527,weatherlink.com 1.10,2013-01-02 17:54:00,
2013-01-02 11:09:00,38.3,19.0,30.30,NW,317,6.0,9.0,45,0.00,,,0.00,545,weatherlink.com 1.10,2013-01-02 18:09:00,
2013-01-02 11:24:00,38.7,19.0,30.30,NW,320,5.0,9.0,45,0.00,,,0.00,559,weatherlink.com 1.10,2013-01-02 18:24:00,
2013-01-02 11:39:00,39.0,19.0,30.29,WNW,300,2.0,8.0,44,0.00,,,0.00,568,weatherlink.com 1.10,2013-01-02 18:39:00,
2013-01-02 11:54:00,40.3,19.0,30.28,NW,309,1.0,6.0,42,0.00,,,0.00,575,weatherlink.com 1.10,2013-01-02 18:54:00,
2013-01-02 12:09:00,41.2,18.0,30.27,NW,306,5.0,7.0,40,0.00,,,0.00,578,weatherlink.com 1.10,2013-01-02 19:09:00,
2013-01-02 12:24:00,41.2,18.0,30.26,WNW,292,0.0,7.0,40,0.00,,,0.00,577,weatherlink.com 1.10,2013-01-02 19:24:00,
2013-01-02 12:39:00,42.1,19.0,30.25,WNW,296,1.0,6.0,39,0.00,,,0.00,571,weatherlink.com 1.10,2013-01-02 19:39:00,
2013-01-02 12:54:00,42.8,18.0,30.24,WNW,295,1.0,8.0,37,0.00,,,0.00,564,weatherlink.com 1.10,2013-01-02 19:54:00,
2013-01-02 13:09:00,43.4,19.0,30.23,West,281,2.0,9.0,37,0.00,,,0.00,550,weatherlink.com 1.10,2013-01-02 20:09:00,
2013-01-02 13:25:00,44.1,19.0,30.22,WNW,303,6.0,8.0,36,0.00,,,0.00,534,weatherlink.com 1.10,2013-01-02 20:25:00,
2013-01-02 13:40:00,44.5,18.0,30.21,WNW,298,2.0,7.0,34,0.00,,,0.00,515,weatherlink.com 1.10,2013-01-02 20:40:00,
2013-01-02 13:55:00,45.6,17.0,30.21,WNW,296,3.0,4.0,32,0.00,,,0.00,492,weatherlink.com 1.10,2013-01-02 20:55:00,
2013-01-02 14:10:00,45.9,17.0,30.20,NW,312,3.0,7.0,31,0.00,,,0.00,464,weatherlink.com 1.10,2013-01-02 21:10:00,
2013-01-02 14:25:00,45.8,16.0,30.20,NW,326,0.0,9.0,30,0.00,,,0.00,432,weatherlink.com 1.10,2013-01-02 21:25:00,
2013-01-02 14:40:00,46.7,16.0,30.20,NW,306,2.0,8.0,29,0.00,,,0.00,399,weatherlink.com 1.10,2013-01-02 21:40:00,
2013-01-02 14:55:00,46.7,15.0,30.19,West,281,4.0,7.0,28,0.00,,,0.00,366,weatherlink.com 1.10,2013-01-02 21:55:00,
2013-01-02 15:10:00,47.0,15.0,30.19,NW,305,3.0,8.0,28,0.00,,,0.00,325,weatherlink.com 1.10,2013-01-02 22:10:00,
2013-01-02 15:25:00,47.3,15.0,30.20,WSW,251,2.0,6.0,27,0.00,,,0.00,287,weatherlink.com 1.10,2013-01-02 22:25:00,
2013-01-02 15:40:00,47.7,15.0,30.19,WSW,251,1.0,5.0,27,0.00,,,0.00,241,weatherlink.com 1.10,2013-01-02 22:40:00,
2013-01-02 15:55:00,47.6,14.0,30.19,West,259,2.0,5.0,26,0.00,,,0.00,190,weatherlink.com 1.10,2013-01-02 22:55:00,
2013-01-02 16:10:00,48.0,14.0,30.19,WSW,258,2.0,3.0,26,0.00,,,0.00,134,weatherlink.com 1.10,2013-01-02 23:10:00,
2013-01-02 16:25:00,47.7,14.0,30.18,WSW,258,1.0,2.0,26,0.00,,,0.00,83,weatherlink.com 1.10,2013-01-02 23:25:00,
2013-01-02 16:40:00,47.4,14.0,30.18,WSW,258,0.0,4.0,26,0.00,,,0.00,42,weatherlink.com 1.10,2013-01-02 23:40:00,
2013-01-02 16:55:00,45.9,13.0,30.19,WSW,258,0.0,2.0,27,0.00,,,0.00,12,weatherlink.com 1.10,2013-01-02 23:55:00,
2013-01-02 17:10:00,44.5,15.0,30.19,SW,223,0.0,7.0,31,0.00,,,0.00,7,weatherlink.com 1.10,2013-01-03 00:10:00,
2013-01-02 17:25:00,43.1,15.0,30.19,SW,223,2.0,4.0,32,0.00,,,0.00,0,weatherlink.com 1.10,2013-01-03 00:25:00,
2013-01-02 17:40:00,41.0,14.0,30.20,SW,227,3.0,5.0,34,0.00,,,0.00,0,weatherlink.com 1.10,2013-01-03 00:40:00,
2013-01-02 17:55:00,40.0,15.0,30.20,SW,227,3.0,5.0,36,0.00,,,0.00,0,weatherlink.com 1.10,2013-01-03 00:55:00,
2013-01-02 18:10:00,39.0,15.0,30.21,SW,227,4.0,5.0,37,0.00,,,0.00,0,weatherlink.com 1.10,2013-01-03 01:10:00,
2013-01-02 18:25:00,38.5,15.0,30.21,SW,227,2.0,3.0,38,0.00,,,0.00,0,weatherlink.com 1.10,2013-01-03 01:25:00,
2013-01-02 18:40:00,36.9,15.0,30.21,SW,227,0.0,4.0,40,0.00,,,0.00,0,weatherlink.com 1.10,2013-01-03 01:40:00,
2013-01-02 18:55:00,37.3,15.0,30.22,SW,227,0.0,4.0,41,0.00,,,0.00,0,weatherlink.com 1.10,2013-01-03 01:55:00,
2013-01-02 19:10:00,35.6,14.0,30.22,North,5,10.0,11.0,42,0.00,,,0.00,0,weatherlink.com 1.10,2013-01-03 02:10:00,
2013-01-02 19:25:00,37.0,13.0,30.22,North,9,6.0,9.0,38,0.00,,,0.00,0,weatherlink.com 1.10,2013-01-03 02:25:00,
2013-01-02 19:40:00,36.8,13.0,30.23,North,9,7.0,10.0,38,0.00,,,0.00,0,weatherlink.com 1.10,2013-01-03 02:40:00,
2013-01-02 19:55:00,36.7,14.0,30.23,North,5,6.0,9.0,39,0.00,,,0.00,0,weatherlink.com 1.10,2013-01-03 02:55:00,
2013-01-02 20:10:00,36.7,14.0,30.23,North,9,8.0,9.0,39,0.00,,,0.00,0,weatherlink.com 1.10,2013-01-03 03:10:00,
2013-01-02 20:25:00,37.0,14.0,30.24,North,11,4.0,6.0,39,0.00,,,0.00,0,weatherlink.com 1.10,2013-01-03 03:25:00,
2013-01-02 20:40:00,37.5,12.0,30.23,NNE,29,8.0,12.0,35,0.00,,,0.00,0,weatherlink.com 1.10,2013-01-03 03:40:00,
2013-01-02 20:55:00,38.4,14.0,30.24,NNE,29,1.0,3.0,37,0.00,,,0.00,0,weatherlink.com 1.10,2013-01-03 03:55:00,
2013-01-02 21:10:00,37.0,14.0,30.24,NE,36,4.0,6.0,39,0.00,,,0.00,0,weatherlink.com 1.10,2013-01-03 04:10:00,
2013-01-02 21:25:00,37.1,14.0,30.24,ENE,60,3.0,6.0,39,0.00,,,0.00,0,weatherlink.com 1.10,2013-01-03 04:25:00,
2013-01-02 21:40:00,37.9,14.0,30.24,ESE,112,7.0,10.0,37,0.00,,,0.00,0,weatherlink.com 1.10,2013-01-03 04:40:00,
2013-01-02 21:55:00,39.1,14.0,30.24,SE,135,7.0,9.0,36,0.00,,,0.00,0,weatherlink.com 1.10,2013-01-03 04:55:00,
2013-01-02 22:11:00,39.5,16.0,30.24,East,81,3.0,13.0,38,0.00,,,0.00,0,weatherlink.com 1.10,2013-01-03 05:11:00,
2013-01-02 22:25:00,39.5,17.0,30.24,ENE,63,4.0,15.0,40,0.00,,,0.00,0,weatherlink.com 1.10,2013-01-03 05:25:00,
2013-01-02 22:40:00,39.1,18.0,30.24,ENE,58,4.0,15.0,42,0.00,,,0.00,0,weatherlink.com 1.10,2013-01-03 05:40:00,
2013-01-02 22:55:00,38.9,19.0,30.24,ENE,63,3.0,11.0,44,0.00,,,0.00,0,weatherlink.com 1.10,2013-01-03 05:55:00,
2013-01-02 23:10:00,35.9,13.0,30.25,NW,317,0.0,9.0,39,0.00,,,0.00,0,weatherlink.com 1.10,2013-01-03 06:10:00,
2013-01-02 23:25:00,33.0,13.0,30.25,NW,317,0.0,6.0,44,0.00,,,0.00,0,weatherlink.com 1.10,2013-01-03 06:25:00,
2013-01-02 23:40:00,32.7,14.0,30.25,NW,317,3.0,5.0,47,0.00,,,0.00,0,weatherlink.com 1.10,2013-01-03 06:40:00,
2013-01-02 23:55:00,34.6,18.0,30.24,NNE,28,7.0,10.0,51,0.00,,,0.00,0,weatherlink.com 1.10,2013-01-03 06:55:00,